Regional Weather Roundup
Issued by NWS Sioux Falls, SD

Home | Current Version | Previous Version | Text Only | Print | Product List | Glossary On
Versions: 1 2 3 4 5 6 7 8 9 10 11 12 13 14 15 16 17 18 19 20 21 22 23 24 25 26 27 28 29 30 31 32 33 34 35 36 37 38 39 40 41 42 43 44 45 46 47 48 49 50
000
ASUS43 KFSD 052102
RWRFSD

WEATHER ROUNDUP FOR SE SOUTH DAKOTA/SW MINNESOTA/NW IOWA
NATIONAL WEATHER SERVICE SIOUX FALLS SD
300 PM CST FRI FEB 05 2016

NOTE: "FAIR" INDICATES FEW OR NO CLOUDS BELOW 12,000 FEET WITH NO
SIGNIFICANT WEATHER AND OR OBSTRUCTIONS TO VISIBILITY.


SDZ038>040-050-052>070-052200-
SOUTHEAST SOUTH DAKOTA

CITY           SKY/WX    TMP DP  RH WIND       PRES   REMARKS
BROOKINGS      FLURRIES  29  24  82 W10       30.12F WCI  20
CHAMBERLAIN    CLOUDY    34  31  90 N10G21    30.17R WCI  26
HURON          CLOUDY    32  28  85 NW12      30.16S WCI  23
MADISON        CLOUDY    28  28 100 W6        30.13S WCI  22
MITCHELL       CLOUDY    33  28  81 N8        30.17S WCI  26
SIOUX FALLS    CLOUDY    29  25  85 SW9       30.15S WCI  20
WINNER         CLOUDY    36  30  79 NW17G25   30.18S
YANKTON        CLOUDY    36  27  69 SW5       30.15R
$$

MNZ071-072-080-081-089-090-097-098-052200-
SOUTHWEST MINNESOTA

CITY           SKY/WX    TMP DP  RH WIND       PRES   REMARKS
FAIRMONT       CLOUDY    25  18  74 S16       30.20F WCI  12
JACKSON        CLOUDY    28  21  74 S17       30.17F HAZE    WCI  16
LUVERNE        CLOUDY    30  27  86 S13       30.16S WCI  20
MARSHALL       CLOUDY    28  22  78 SW9       30.16S WCI  19
MONTEVIDEO     CLOUDY    28  21  74 W7        30.17F WCI  21
PIPESTONE        N/A     28  21  74 SW12      30.12S WCI  18
REDWOOD FALLS  CLOUDY    28  22  78 SW14      30.18S WCI  17
TRACY          CLOUDY    28  24  86 SW17G25   30.14S WCI  16
WINDOM         CLOUDY    27  21  80 S14G22    30.16S WCI  15
WORTHINGTON    CLOUDY    27  21  80 S17G23    30.17R WCI  14
$$

IAZ001>003-012>014-020>022-031-032-NEZ013-014-SDZ071-052200-
NORTHWEST IOWA

CITY           SKY/WX    TMP DP  RH WIND       PRES   REMARKS
ESTHERVILLE    CLOUDY    24  21  88 S18       30.19F FOG     WCI  10
SIOUX CITY     CLOUDY    30  24  78 S13       30.21S WCI  20
SPENCER          N/A     27  22  81 S16       30.19S WCI  15
STORM LAKE     CLOUDY    27  27 100 S18       30.19F FOG     WCI  13
$$

ABBREVIATIONS USED IN REMARKS
   TC - TEMPERATURE IN CELSIUS
  WCI - WIND CHILL INDEX
   HX - HEAT INDEX
  VSB - VISIBILITY




USA.gov is the U.S. government's official web portal to all federal, state and local government web resources and services.